This is the latest recevied weather packets stored in our database for station/object N3TJJ-2. If no packets are shown the sender has not sent any weather packets the latest 10 day(s).
| Time | Temp. | Humidity | Pressure | Rain* | Wind** | Luminosity | Snow |
|---|---|---|---|---|---|---|---|
| 1778099170 | 18.33° C | 80% | 1008.1 hPa | 0 mm | - | - | - |
| 1778098691 | 18.33° C | 80% | 1008 hPa | 0 mm | - | - | - |
| 1778097708 | 18.33° C | 80% | 1008.1 hPa | 0 mm | - | - | - |
| 1778097258 | 18.33° C | 78% | 1008.1 hPa | 0 mm | - | - | - |
| 1778096881 | 18.33° C | 79% | 1008.2 hPa | 0 mm | - | - | - |
| 1778096544 | 18.33° C | 80% | 1008.2 hPa | 0 mm | - | - | - |
| 1778096126 | 18.33° C | 80% | 1008.2 hPa | 0 mm | - | - | - |
| 1778095757 | 18.89° C | 77% | 1008.4 hPa | 0 mm | - | - | - |
| 1778095524 | 18.33° C | 76% | 1008.3 hPa | 0 mm | - | - | - |
| 1778095314 | 18.33° C | 71% | 1008.3 hPa | 0 mm | - | - | - |
| 1778094820 | 17.22° C | 63% | 1008.5 hPa | 0 mm | - | - | - |
| 1778093970 | 17.22° C | 53% | 1008.4 hPa | 0 mm | - | - | - |
| 1778093598 | 17.22° C | 35% | 1008.5 hPa | 0 mm | - | - | - |
| 1778093239 | 17.22° C | 25% | 1008.6 hPa | 0 mm | - | - | - |
| 1778092877 | 17.22° C | 24% | 1008.5 hPa | 0 mm | - | - | - |
| 1778092518 | 16.67° C | 25% | 1008.8 hPa | 0 mm | - | - | - |
| 1778092160 | 16.11° C | 25% | 1008.9 hPa | 0 mm | - | - | - |
| 1778091799 | 16.11° C | 26% | 1008.9 hPa | 0 mm | - | - | - |
| 1778091437 | 16.11° C | 26% | 1009.1 hPa | 0 mm | - | - | - |
| 1778091076 | 15.56° C | 26% | 1009.1 hPa | 0 mm | - | - | - |
| 1778090721 | 15.56° C | 27% | 1009.2 hPa | 0 mm | - | - | - |
| 1778090357 | 15.56° C | 27% | 1009.2 hPa | 0 mm | - | - | - |
| 1778090003 | 15.56° C | 27% | 1009.3 hPa | 0 mm | - | - | - |
| 1778089637 | 15.56° C | 27% | 1009.3 hPa | 0 mm | - | - | - |
| 1778089279 | 15.56° C | 27% | 1009.3 hPa | 0 mm | - | - | - |
* Rain latest hour (hover to see other rain measurements)
** Current wind speed in m/s (hover to see current wind gust speed)